Theta_e
319 320 319 316 316 315 315 315 315 315 315 315 315 315 315 315 315 315 316 316 316 317 316 316 316 316 310 300 297 305 312 310 306 304 302 301 299 299 297 297 297 296 298 298 299 298 297
321 322 321 319 317 316 316 316 316 316 316 316 316 315 315 315 315 315 316 316 316 316 316 316 316 315 303 296 303 305 304 305 305 304 302 303 301 301 298 296 296 297 296 297 297 296 296
322 322 321 320 319 318 317 317 317 317 317 317 317 316 316 315 315 315 316 315 316 316 316 315 314 309 300 297 303 305 304 303 305 304 301 303 304 300 298 295 298 296 292 295 295 295 293
320 320 321 320 320 320 319 319 318 318 318 317 317 316 316 316 315 315 316 315 314 313 313 312 312 305 296 302 305 302 304 302 304 304 303 304 304 299 298 298 294 292 292 292 293 292 293
322 321 321 321 321 321 321 320 320 319 318 318 317 316 316 316 316 316 316 313 310 311 311 311 304 301 294 303 298 301 302 299 302 303 302 302 300 296 294 293 293 293 291 292 291 291 291
322 322 322 322 322 322 321 321 321 321 319 318 317 317 316 316 316 316 313 307 307 307 305 303 301 298 297 294 298 299 302 301 299 299 298 298 298 294 293 292 292 291 289 290 288 290 290
323 322 322 321 321 320 320 319 319 320 320 320 318 318 317 316 316 314 308 306 304 302 300 292 293 294 295 299 300 298 299 298 298 295 291 294 291 290 292 290 289 288 287 288 291 291 286
321 320 319 318 318 317 317 317 317 318 319 320 319 319 318 316 315 311 308 299 296 295 293 294 295 295 297 298 292 295 300 293 292 290 291 290 288 290 290 289 288 288 287 289 290 288 286
315 316 316 316 315 315 316 316 316 316 316 317 318 318 318 315 314 310 303 300 304 301 293 293 294 294 295 296 291 292 296 293 290 288 289 288 288 289 288 287 286 288 286 287 284 287 290
310 310 310 311 312 312 312 313 314 314 314 315 317 317 317 314 309 306 302 303 304 300 295 293 290 293 294 294 290 296 295 293 291 288 288 289 288 287 286 286 287 285 286 285 284 284 285
309 309 309 308 308 308 308 309 310 311 312 313 315 316 312 311 304 300 303 304 302 300 284 291 289 295 294 290 291 291 296 292 288 289 288 287 286 285 285 287 288 286 286 285 285 284 279
305 305 306 306 307 307 307 307 308 309 309 311 312 313 311 311 309 304 301 299 297 290 284 287 289 288 287 289 289 291 291 294 292 288 288 287 289 288 288 287 287 288 286 285 284 283 280
305 305 304 304 304 304 305 305 306 307 307 309 310 313 310 308 306 307 304 300 289 284 291 287 286 287 286 285 286 287 286 286 287 285 286 286 286 288 288 285 287 286 284 285 283 283 285
304 304 304 304 304 303 304 304 304 304 306 308 312 311 307 307 307 305 303 296 284 287 287 287 286 286 285 285 285 285 285 285 287 286 286 286 286 286 288 286 284 285 283 284 280 282 284
303 302 303 303 304 304 303 303 302 303 304 307 310 308 306 307 306 305 303 285 285 289 292 287 287 286 285 284 284 284 285 285 285 286 284 285 283 286 287 287 286 284 281 283 281 272 277
303 303 302 302 303 302 303 302 302 302 303 305 307 306 305 307 306 304 292 286 287 294 292 292 289 290 287 285 285 285 286 287 285 286 286 285 282 284 285 287 286 284 285 281 283 277 278
304 304 303 303 302 303 302 302 302 302 302 304 303 297 301 305 305 298 285 286 291 295 295 292 289 289 289 285 285 288 288 286 286 286 287 285 283 282 283 282 284 282 281 281 281 281 279
303 304 304 303 303 303 301 302 302 301 301 302 299 287 301 301 290 286 286 285 292 292 293 291 289 289 288 287 286 287 287 290 288 288 284 286 284 280 283 283 284 284 283 283 280 281 280
302 303 303 304 304 303 301 301 301 301 301 299 294 293 299 296 284 285 287 289 291 290 290 289 289 290 290 287 285 287 287 286 287 288 289 286 284 281 281 280 282 281 283 283 282 280 277
300 301 302 302 303 303 303 301 301 301 302 299 293 285 288 289 292 290 286 284 285 292 292 291 290 290 286 285 287 286 286 287 287 287 288 288 286 284 281 284 284 279 281 282 281 278 280
300 299 300 301 302 303 303 303 302 301 301 298 291 286 290 283 284 287 289 289 285 285 290 291 288 288 286 284 285 283 286 288 287 288 288 288 282 283 284 285 285 283 282 284 280 281 279
299 300 299 299 300 301 303 303 302 302 300 293 288 287 289 289 288 285 286 285 284 286 287 285 286 288 289 285 287 282 287 286 286 287 285 285 281 278 277 281 281 279 282 283 282 283 283
298 298 298 299 299 300 301 302 303 302 301 293 294 294 290 288 286 284 285 285 285 288 288 290 289 288 286 289 292 293 292 291 290 287 284 283 281 277 278 275 274 275 279 281 283 285 284
296 297 297 298 299 299 299 300 301 302 301 297 295 293 286 282 286 285 285 286 285 287 286 289 290 288 290 294 293 289 288 287 288 286 288 283 281 281 278 276 272 283 286 285 283 285 286
296 296 296 297 297 298 298 299 300 301 302 297 298 293 287 282 285 285 285 286 287 288 287 288 290 292 295 290 284 281 280 278 280 285 285 285 282 278 276 276 280 282 284 284 281 282 288
295 296 296 296 296 297 298 298 298 300 300 299 297 298 290 283 283 286 285 286 284 284 285 287 291 294 293 286 283 276 275 278 276 277 279 283 284 279 278 273 271 282 282 284 283 277 289
295 295 295 295 295 296 296 297 298 299 299 296 294 298 291 283 287 288 284 284 287 286 284 287 285 285 289 283 279 278 277 282 276 273 273 277 278 276 277 275 279 286 284 283 276 280 288
295 294 294 294 294 295 295 296 297 297 297 295 293 296 290 285 287 290 290 286 287 287 283 285 283 284 283 279 278 278 278 281 279 281 276 276 275 276 277 275 273 288 281 279 286 289 287
294 294 294 294 294 294 295 295 296 296 296 296 289 294 295 287 286 293 293 293 292 291 288 287 285 285 286 282 282 283 280 281 280 276 283 276 281 280 280 280 287 287 287 288 288 286 288
Wind_Speed
11 10 8 3 4 6 6 6 6 5 6 6 7 8 9 10 11 12 13 14 13 12 12 12 13 11 5 5 3 5 9 5 3 3 3 3 6 4 6 2 4 9 6 4 5 5 9
12 12 10 7 4 6 7 8 8 8 7 8 8 8 9 11 13 13 14 15 15 14 12 12 11 12 6 5 2 5 7 4 8 5 6 6 4 4 3 3 6 3 7 10 6 6 7
10 10 7 6 6 6 7 8 9 9 9 9 9 9 9 10 13 15 15 16 16 15 14 10 8 5 2 5 1 5 4 3 5 7 3 5 4 5 2 3 2 4 8 7 7 3 3
9 9 7 7 5 6 7 8 8 8 8 8 9 9 10 11 12 15 17 18 16 11 7 5 5 4 2 1 1 5 5 2 3 4 2 2 2 1 3 0 3 5 4 5 6 2 3
10 8 7 7 8 8 9 9 7 8 8 8 8 8 10 11 13 15 17 16 5 3 4 5 5 5 3 4 1 4 5 2 1 1 1 1 2 1 3 4 6 5 7 6 2 4 5
11 10 9 8 8 8 9 8 9 10 10 10 9 8 8 10 12 16 17 5 2 4 5 4 3 4 3 1 2 3 1 3 1 1 3 3 3 4 5 5 3 5 6 3 7 5 6
10 8 9 9 4 6 4 5 8 10 11 10 9 9 9 9 12 17 11 2 4 5 5 4 4 4 1 4 2 1 3 3 2 3 3 3 4 8 5 3 4 5 6 11 11 6 7
8 7 9 8 8 9 8 8 9 11 10 7 7 7 7 8 12 14 5 5 4 3 7 1 1 2 2 3 3 2 6 3 3 4 3 4 7 4 2 1 3 4 8 6 8 3 5
16 15 14 12 12 11 10 10 11 13 13 11 8 7 6 6 10 4 5 4 1 2 6 2 1 2 2 4 1 1 5 1 3 4 6 8 4 3 2 3 5 7 7 5 5 10 8
15 15 14 14 13 12 12 13 12 12 13 13 10 6 1 5 4 2 3 3 1 1 4 2 1 3 1 3 3 2 2 3 3 3 2 5 4 4 4 6 4 7 3 1 6 8 4
13 13 13 12 11 12 12 12 12 13 13 14 13 3 4 4 1 1 3 1 2 3 5 3 2 2 3 4 4 2 2 2 3 3 3 5 3 5 6 3 4 3 1 4 5 3 4
9 7 8 10 11 11 12 12 13 13 14 14 16 1 2 2 1 2 2 2 0 1 8 3 1 1 1 0 1 3 2 1 2 2 4 1 1 2 3 1 2 2 4 4 2 2 4
11 10 9 9 9 9 10 11 13 14 15 15 15 2 3 2 2 2 2 3 1 5 3 3 1 2 1 1 1 2 3 5 4 3 5 4 5 4 3 4 3 3 5 3 3 3 2
11 12 10 10 10 9 9 10 12 14 15 16 14 4 4 3 2 3 3 1 6 2 5 1 2 2 2 2 2 1 3 5 5 4 2 4 4 6 6 2 2 5 2 3 7 4 4
9 10 10 9 10 9 9 9 10 12 14 14 0 1 0 2 3 2 2 4 5 5 2 4 2 4 3 3 3 2 4 2 2 6 5 3 3 4 2 2 4 5 4 3 2 2 4
12 12 11 11 10 8 9 8 9 9 12 13 4 3 3 3 2 2 1 6 5 2 3 3 4 3 3 4 3 2 3 3 3 1 1 3 4 2 4 1 2 4 2 2 3 5 7
14 13 12 12 11 11 9 10 10 9 11 13 3 4 3 1 3 2 6 7 5 5 6 5 3 2 5 2 2 1 3 3 2 3 4 1 1 4 2 6 1 3 4 4 4 3 5
15 16 15 14 14 10 9 10 9 8 10 8 4 4 3 2 4 3 7 7 3 5 6 5 2 4 4 3 3 3 4 3 2 4 3 1 1 4 5 4 2 1 2 4 4 3 4
18 18 18 18 16 15 12 10 11 9 8 4 3 1 1 2 7 8 3 4 6 6 8 7 8 8 3 4 3 6 2 3 2 3 3 5 3 3 5 2 3 6 7 7 4 3 11
22 20 20 20 20 19 17 14 11 9 9 1 2 3 2 2 2 11 8 7 7 7 13 7 5 5 4 6 9 2 2 1 2 3 2 2 3 7 12 9 3 5 9 11 10 5 9
21 21 22 22 21 19 20 19 16 15 12 3 3 5 6 6 11 12 15 6 9 9 9 10 6 15 10 7 8 5 7 4 6 5 5 1 6 7 12 14 13 14 15 15 16 19 12
24 23 21 23 22 22 20 21 20 18 16 5 3 3 2 3 10 16 20 17 15 10 10 7 16 12 18 14 12 5 7 7 6 7 7 4 3 1 5 8 9 15 19 17 21 25 25
23 24 24 24 23 24 22 22 21 23 20 7 4 2 4 7 10 12 18 20 18 19 12 17 12 15 12 14 15 12 6 5 3 7 9 8 4 4 6 3 3 11 12 20 15 18 19
24 24 26 24 27 24 23 23 21 25 25 10 6 4 5 12 12 16 13 20 22 20 20 8 16 15 0 6 5 3 2 4 9 11 8 7 6 4 5 1 12 9 3 7 12 17 18
22 24 23 27 22 26 26 24 24 24 26 14 9 8 3 14 14 20 20 18 15 14 20 14 8 3 5 4 2 5 3 3 9 16 18 13 8 4 6 10 16 24 18 14 10 13 15
23 24 24 24 23 24 26 26 23 24 26 13 12 9 7 6 17 18 21 16 15 11 11 10 4 5 7 3 6 12 9 3 5 4 1 9 14 8 8 8 10 10 5 5 6 10 12
25 24 23 24 23 24 24 25 26 25 23 13 4 18 9 10 16 12 15 15 14 14 10 4 6 3 6 8 10 11 11 6 10 7 7 7 5 17 15 12 11 11 11 8 6 9 9
24 25 23 22 24 23 24 24 26 25 23 15 7 10 11 7 14 15 23 13 8 12 11 4 5 5 5 11 8 9 11 11 12 10 9 13 11 10 11 11 20 10 11 11 8 1 3
25 27 24 24 24 25 25 23 26 25 25 20 10 7 11 9 3 12 20 19 22 21 11 11 5 4 8 8 9 6 8 5 10 13 10 10 13 9 12 11 9 6 6 13 3 5 6
Wind_Direction
270 276 274 234 254 271 268 275 285 302 305 309 318 325 329 329 327 324 322 322 318 314 313 314 313 317 270 215 79 355 325 332 293 308 360 308 252 272 246 245 241 244 279 269 269 264 268
263 273 273 226 227 262 272 280 285 292 298 303 305 311 322 325 324 325 323 319 314 308 306 303 300 308 247 239 3 349 347 359 20 8 28 3 350 316 305 254 246 5 286 276 274 270 267
254 271 274 255 236 225 247 266 282 289 292 297 301 307 313 320 322 321 321 316 310 304 299 291 283 285 256 72 18 1 18 22 11 19 23 34 342 293 341 251 336 301 292 268 230 263 269
254 255 272 280 267 260 253 249 263 278 285 290 299 304 309 313 317 319 320 316 311 296 275 253 269 259 79 118 2 12 360 77 44 39 54 15 342 117 316 335 232 261 254 273 114 281 123
249 258 262 277 279 268 271 275 267 269 274 280 290 302 308 313 317 317 321 319 311 277 240 242 232 261 118 146 204 351 2 0 306 117 86 260 264 331 199 258 253 194 292 269 269 48 322
247 245 243 252 272 277 277 284 293 287 281 281 283 293 301 311 319 322 325 295 291 216 210 230 220 210 154 61 335 317 351 321 281 224 212 239 240 254 219 230 266 325 293 272 285 43 312
295 238 261 257 287 41 359 13 346 316 286 275 284 293 303 318 328 333 335 254 245 183 43 17 339 307 343 342 227 58 357 272 234 218 248 76 264 234 13 348 323 300 283 283 293 37 306
64 74 72 70 58 49 33 18 2 359 346 296 284 291 303 319 328 326 321 42 60 349 303 109 278 259 334 333 272 66 331 253 229 236 167 207 239 57 75 135 264 260 289 289 289 21 297
49 50 51 49 49 44 33 25 17 13 5 353 327 312 311 309 326 312 45 68 103 295 260 123 17 326 9 301 308 39 324 294 254 223 219 259 70 122 226 224 263 251 255 296 282 319 262
30 38 38 36 30 28 24 20 13 13 10 1 347 329 324 321 292 351 62 106 49 304 291 163 122 69 292 318 222 12 18 322 197 262 218 270 104 203 226 253 227 277 45 284 297 337 303
30 32 29 24 28 24 17 12 7 5 10 4 349 29 77 19 101 19 48 60 4 246 296 57 83 351 353 302 348 104 18 205 235 165 218 84 177 202 238 268 200 16 346 312 311 300 321
15 12 15 6 16 14 7 6 0 5 358 356 351 118 134 136 148 82 106 70 181 97 247 102 107 4 283 108 334 324 252 215 5 209 217 319 98 245 348 94 266 61 272 221 238 163 240
351 360 349 346 342 345 345 350 358 359 352 345 334 251 309 333 24 122 203 243 345 216 341 316 38 5 330 342 209 322 283 216 209 151 213 170 194 140 206 224 178 243 278 274 245 214 277
339 342 342 338 337 327 329 335 341 345 347 337 315 141 22 37 40 318 252 39 215 225 217 198 243 234 273 344 169 227 261 268 232 255 267 236 223 186 149 273 6 186 300 300 289 289 356
304 308 308 314 319 334 313 327 328 333 334 337 158 71 257 67 357 303 232 214 222 215 149 185 183 228 184 185 265 282 222 258 331 225 246 249 172 117 71 344 307 129 205 51 293 141 266
294 290 287 296 301 313 324 322 323 320 324 335 294 248 176 360 343 244 143 235 244 260 139 103 227 230 251 179 202 190 207 150 168 209 329 45 275 24 89 231 160 288 30 230 170 281 271
291 287 285 281 279 289 291 300 304 312 310 325 268 232 83 308 255 182 218 226 246 213 207 214 237 269 240 250 236 230 280 135 245 157 199 199 257 108 176 197 233 158 225 222 289 243 277
301 298 283 278 268 256 274 288 293 294 299 296 259 232 66 299 173 199 208 192 295 210 208 229 211 240 227 208 225 250 251 232 121 175 189 121 239 230 240 92 42 46 305 244 264 205 255
310 300 293 280 266 253 248 253 270 281 269 312 234 226 87 302 211 212 205 245 249 205 203 196 212 219 211 215 241 220 198 35 133 216 192 173 191 275 183 176 182 224 192 217 223 261 253
304 299 298 292 286 263 240 239 233 249 267 225 261 228 214 230 271 231 198 222 225 220 236 211 225 172 163 216 226 201 226 187 183 202 271 199 207 242 263 321 42 208 206 212 206 233 272
290 291 293 294 289 283 255 238 220 210 240 223 227 229 199 206 230 220 231 189 208 211 221 218 239 206 194 217 218 208 229 230 203 187 184 155 249 230 259 278 282 266 263 246 224 238 247
300 294 283 286 284 284 274 251 231 213 210 232 231 214 224 227 229 206 219 229 213 225 188 216 229 208 220 227 209 189 215 222 231 172 178 172 251 132 261 246 269 268 259 255 250 255 256
292 290 288 281 278 277 276 264 238 218 207 205 216 221 275 236 216 224 217 227 234 215 241 231 218 235 227 231 242 257 308 277 248 181 196 182 201 207 249 84 311 269 239 225 242 243 241
293 288 282 285 281 268 274 264 261 231 212 219 190 236 232 246 226 219 232 229 232 232 238 229 232 232 249 106 69 59 51 261 237 227 181 188 185 201 275 138 253 249 182 237 248 243 239
285 286 286 285 280 279 275 265 263 251 241 219 206 204 231 249 243 245 236 241 246 238 239 238 216 244 208 118 211 248 212 251 227 225 217 215 191 225 244 237 284 292 277 263 208 262 244
283 289 285 284 285 280 274 270 258 258 255 243 221 203 196 277 237 244 242 229 231 237 245 242 262 207 158 157 207 233 226 179 202 221 337 227 217 210 210 240 255 265 115 136 132 265 254
284 284 282 282 279 276 273 272 263 254 255 255 239 222 198 221 239 241 225 229 228 224 241 185 156 159 184 207 231 238 227 189 231 197 174 177 199 222 229 238 256 257 156 163 226 286 164
278 279 283 290 285 278 270 265 264 261 252 252 258 209 220 223 239 208 219 214 214 212 216 126 139 203 200 220 230 222 245 223 232 232 175 181 181 206 223 233 248 184 135 217 254 18 198
282 282 282 282 285 284 273 260 257 256 256 251 258 213 214 226 281 232 228 226 222 219 220 188 226 146 193 206 210 213 226 193 222 233 191 219 211 205 205 215 245 180 233 218 202 294 286